Regional Weather Roundup
Issued by NWS Newport/Morehead, NC

Current Version | Previous Version | Text Only | Print | Product List | Glossary On
Versions: 1 2 3 4 5 6 7 8 9 10 11 12 13 14 15 16 17 18 19 20 21 22 23 24 25 26 27 28 29 30 31 32 33 34 35 36 37 38 39 40 41 42 43 44 45 46 47 48 49 50
000 ASUS42 KMHX 290413 RWRMHX WEATHER ROUNDUP FOR EASTERN NORTH CAROLINA NATIONAL WEATHER SERVICE NEWPORT/MOREHEAD CITY NC 1200 AM EDT FRI MAY 29 2015 NOTE: "FAIR" INDICATES FEW OR NO CLOUDS BELOW 12,000 FEET WITH NO SIGNIFICANT WEATHER AND/OR OBSTRUCTIONS TO VISIBILITY NCZ015>017-031-032-045>047-102-103-290500- NORTH COAST CITY SKY/WX TMP DP RH WIND PRES REMARKS EDENTON CLEAR 72 64 78 S10 30.24S ELIZABETH CITY CLEAR 71 63 75 S7 30.24S KITTY HAWK CLEAR 70 63 77 CALM 30.23S MANTEO CLEAR 70 62 76 S6 30.24F $$ NCZ045>047-081-094-103-104-290500- CENTRAL COAST CITY SKY/WX TMP DP RH WIND PRES REMARKS FRISCO PTCLDY 73 62 68 SE6 30.24F SWANQUARTER N/A 70 N/A N/A S3 30.21S $$ NCZ095-097-098-100-101-290500- SOUTHERN COAST CITY SKY/WX TMP DP RH WIND PRES REMARKS BEAUFORT CLEAR 65 61 87 CALM 30.24S CEDAR ISLAND N/A 72 N/A N/A CALM 30.27S JACKSONVILLE CLEAR 67 63 87 S3 30.23S PINEY ISLAND CLEAR N/A N/A N/A CALM 30.24S WILMINGTON PTCLDY 67 62 84 CALM 30.23S $$ NCZ011>013-027>030-043-044-078>080-089-090>093-098-290500- COASTAL PLAIN CITY SKY/WX TMP DP RH WIND PRES REMARKS AHOSKIE PTCLDY 70 63 78 SE6 30.23S CLINTON CLEAR 70 64 82 CALM 30.24F ELIZABETHTOWN CLEAR 69 64 82 CALM 30.24S GOLDSBORO CLEAR 71 64 77 CALM 30.21S GREENVILLE CLEAR 72 64 78 S6 30.24S HAVELOCK CLEAR 65 61 87 CALM 30.25F KENANSVILLE CLEAR 67 61 81 CALM 30.25S KINSTON PTCLDY 71 63 75 S5 30.25R NEW BERN CLEAR 64 59 83 CALM 30.26S RICHLANDS CLEAR 64 57 77 CALM 30.24S ROCKY MOUNT CLEAR 73 65 75 S7 30.22S WASHINGTON CLEAR 70 62 76 S3 30.25S WHITEVILLE CLEAR 65 62 90 CALM 30.23S $$ AMZ130-135-150-152-154-156-158-170-250-252-270-ANZ085-086-088-633-658-670-290500- MARINE OBSERVATIONS STATION/POSITION TIME TEMP WIND PRES WAVE SWELL AIR SEA DIR/SP/G HT/PER HT/PER (UTC) (F) (DEG/KT/KT) (MB) (FT/S) (FT/S) CHESAPEAKE LIGHT 0300 68 180/ 22/ 22 1023.7 64 E VA BEACH 0350 67 64 150/ 6/ 6 1023.7 4/ 8 3/ 8 DUCK 0300 69 57 160/ 9/ 10 1023.0 2 E DUCK 0311 61 N/A 2/ 8 OREGON INLET 0300 72 78 130/ 4/ 8 1024.2 13E OREGON INLT 0400 74 N/A 3/ 8 HATTERAS CG 0300 75 77 140/ 4/ 7 1023.9 DIAMOND BUOY 0350 75 77 140/ 10/ 12 1024.1 4/10 3/10 CAPE LOOKOUT 0400 74 140/ 6/ 6 1023.7 BEAUFORT LAB 0300 73 76 130/ 3/ 4 1023.3 27 SE WRIGHTSVLE 0300 76 170/ 6/ 8 N/A 5 SE WRIGHTSVLE 0308 75 77 150/ 8/ 12 1023.7 225 S CAPE HAT 0350 74 74 60/ 14/ 16 1022.4 6/10 5/10 41 SE CHARLESTON 0350 76 78 110/ 10/ 12 1022.6 3/ 8 3/ 8 $$

USA.gov is the U.S. government's official web portal to all federal, state and local government web resources and services.